Springfield, OH

7:28 AM EDT on October 20, 2017 (GMT -0400)
Springfield-Beckley Municipal

Weather History for KSGH - January, 2013

Change the Weather History Date:

Thursday, January 31, 2013

  Actual Average (KFFO) Record (KFFO)
Temperature  
Mean Temperature 22 °F -  
Max Temperature 29 °F 36 °F 62 °F (2002)
Min Temperature 13 °F 20 °F -5 °F (2004)
Degree Days  
Heating Degree Days 44    
Moisture  
Dew Point 15 °F    
Average Humidity 77    
Maximum Humidity 93    
Minimum Humidity 60    
Precipitation  
Precipitation 0.00 in - - ()
Sea Level Pressure  
Sea Level Pressure 29.85 in    
Wind  
Wind Speed 21 mph (West)    
Max Wind Speed 31 mph    
Max Gust Speed 40 mph    
Visibility 4 miles    
Events Snow    
Averages and records for this station are not official NWS values.
T = Trace of Precipitation, MM = Missing Value Source: NWS Daily Summary

Daily Weather History Graph

Daily Weather History Graph

Search for Another Location

Airport or City:

Trip Planner

Search our weather history database for the weather conditions in past years. The results will help you decide how hot, cold, wet, or windy it might be!

Date:

Astronomy

Jan. 31, 2013 Rise Set
Actual Time 7:44 AM EST 5:54 PM EST
Civil Twilight 7:15 AM EST 6:22 PM EST
Nautical Twilight 6:43 AM EST 6:54 PM EST
Astronomical Twilight 6:11 AM EST 7:26 PM EST
Moon 10:54 PM EST (1/31) 9:43 AM EST (1/31)
Length of Visible Light 11h 07m
Length of Day
10h 09m
Waning Gibbous, 80% of the Moon is Illuminated
Jan 31
Waning Gibbous
Feb 3
Last Quarter
Feb 10
New
Feb 17
First Quarter
Feb 25
Full

Hourly Weather History & Observations

Time (EST) Temp. Windchill Dew Point Humidity Pressure Visibility Wind Dir Wind Speed Gust Speed Precip Events Conditions
12:56 AM 29.1 °F 15.4 °F 23.0 °F 78% 29.55 in 8.0 mi West 23.0 mph 31.1 mph 0.00 in   Overcast
1:56 AM 28.0 °F 14.6 °F 21.0 °F 75% 29.60 in 8.0 mi West 20.7 mph 28.8 mph 0.00 in   Overcast
2:56 AM 26.1 °F 9.8 °F 20.1 °F 78% 29.64 in 4.0 mi West 28.8 mph 38.0 mph 0.00 in Snow Light Snow
3:56 AM 25.2 °F 10.1 °F 18.1 °F 75% 29.67 in 4.0 mi West 23.0 mph 35.7 mph 0.00 in Snow Light Snow
4:08 AM 24.8 °F 9.6 °F 19.4 °F 80% 29.66 in 3.0 mi West 23.0 mph 32.2 mph 0.00 in Snow Light Snow
4:17 AM 24.8 °F 8.7 °F 19.4 °F 80% 29.67 in 1.8 mi West 26.5 mph 31.1 mph 0.00 in Snow Light Snow
4:26 AM 23.0 °F 6.6 °F 19.4 °F 86% 29.67 in 3.0 mi West 25.3 mph 31.1 mph 0.00 in Snow Light Snow
4:56 AM 23.0 °F 6.0 °F 13.1 °F 66% 29.72 in 7.0 mi West 27.6 mph 40.3 mph 0.00 in   Overcast
5:56 AM 22.1 °F 7.2 °F 15.1 °F 74% 29.73 in 5.0 mi West 19.6 mph - 0.00 in Snow Light Snow
6:10 AM 23.0 °F 6.9 °F 15.8 °F 74% 29.72 in 8.0 mi West 24.2 mph 34.5 mph 0.00 in Snow Light Snow
6:32 AM 21.2 °F 5.2 °F 14.0 °F 74% 29.73 in 3.0 mi West 21.9 mph 33.4 mph 0.00 in Snow Light Snow
6:56 AM 22.1 °F 5.4 °F 13.1 °F 68% 29.76 in 7.0 mi West 25.3 mph 31.1 mph 0.00 in Snow Light Snow
7:56 AM 22.1 °F 6.0 °F 12.0 °F 65% 29.81 in 9.0 mi West 23.0 mph 35.7 mph 0.00 in Snow Light Snow
8:56 AM 20.1 °F 5.9 °F 11.1 °F 68% 29.84 in 6.0 mi West 16.1 mph - 0.00 in Snow Light Snow
9:26 AM 19.4 °F 4.1 °F 12.2 °F 74% 29.82 in 5.0 mi West 18.4 mph - 0.00 in Snow Light Snow
9:30 AM 19.4 °F 3.2 °F 12.2 °F 74% 29.83 in 1.8 mi West 20.7 mph 27.6 mph 0.00 in Snow Light Snow
9:33 AM 19.4 °F 0.8 °F 14.0 °F 80% 29.83 in 1.0 mi West 28.8 mph 36.8 mph 0.00 in Snow Light Snow
9:42 AM 19.4 °F 1.8 °F 12.2 °F 74% 29.83 in 1.5 mi West 25.3 mph 38.0 mph 0.00 in Snow Light Snow
9:46 AM 19.4 °F 1.1 °F 12.2 °F 74% 29.83 in 4.0 mi West 27.6 mph 32.2 mph 0.00 in Snow Light Snow
9:56 AM 20.1 °F 2.7 °F 10.0 °F 65% 29.88 in 8.0 mi West 25.3 mph 34.5 mph 0.00 in   Overcast
10:56 AM 21.0 °F 4.6 °F 9.1 °F 60% 29.90 in 8.0 mi West 23.0 mph 33.4 mph 0.00 in   Overcast
11:42 AM 21.2 °F 6.8 °F 14.0 °F 74% 29.87 in 7.0 mi WSW 17.3 mph 27.6 mph 0.00 in Snow Light Snow
11:56 AM 22.1 °F 7.2 °F 14.0 °F 71% 29.91 in 4.0 mi WSW 19.6 mph 26.5 mph 0.00 in Snow Light Snow
12:06 PM 21.2 °F 6.4 °F 14.0 °F 74% 29.87 in 2.0 mi WSW 18.4 mph 28.8 mph 0.00 in Snow Light Snow
12:11 PM 21.2 °F 6.0 °F 15.8 °F 80% 29.86 in 1.2 mi WSW 19.6 mph 28.8 mph 0.00 in Snow Light Snow
12:18 PM 21.2 °F 4.9 °F 15.8 °F 80% 29.86 in 2.0 mi WSW 23.0 mph 27.6 mph 0.00 in Snow Light Snow
12:27 PM 23.0 °F 7.6 °F 15.8 °F 74% 29.86 in 4.0 mi WSW 21.9 mph 25.3 mph 0.00 in Snow Light Snow
12:56 PM 24.1 °F 9.8 °F 15.1 °F 69% 29.89 in 8.0 mi WSW 19.6 mph - 0.00 in   Overcast
1:38 PM 24.8 °F 11.1 °F 15.8 °F 69% 29.84 in 6.0 mi WSW 18.4 mph - 0.00 in Snow Light Snow
1:56 PM 25.2 °F 8.6 °F 14.0 °F 63% 29.88 in 7.0 mi WSW 28.8 mph 33.4 mph 0.00 in Snow Light Snow
2:38 PM 24.8 °F 10.0 °F 17.6 °F 74% 29.84 in 4.0 mi WSW 21.9 mph 36.8 mph 0.00 in Snow Light Snow
2:56 PM 26.1 °F 9.3 °F 14.0 °F 60% 29.88 in 6.0 mi West 31.1 mph 36.8 mph 0.00 in Snow Light Snow
3:56 PM 26.1 °F 12.0 °F 14.0 °F 60% 29.88 in 9.0 mi WSW 20.7 mph 25.3 mph 0.00 in Snow Light Snow
4:41 PM 24.8 °F 8.7 °F 15.8 °F 69% 29.86 in 2.5 mi West 26.5 mph 31.1 mph 0.00 in Snow Light Snow
4:44 PM 24.8 °F 9.6 °F 17.6 °F 74% 29.87 in 1.2 mi West 23.0 mph 31.1 mph 0.00 in Snow Light Snow
4:56 PM 24.1 °F 9.8 °F 19.0 °F 81% 29.91 in 1.2 mi West 19.6 mph 27.6 mph 0.00 in Snow Light Snow
5:06 PM 23.0 °F 8.0 °F 17.6 °F 80% 29.87 in 2.0 mi West 20.7 mph - 0.00 in Snow Light Snow
5:09 PM 23.0 °F 8.7 °F 17.6 °F 80% 29.87 in 3.0 mi West 18.4 mph 27.6 mph 0.00 in Snow Light Snow
5:56 PM 23.0 °F 9.6 °F 17.1 °F 78% 29.91 in 7.0 mi West 16.1 mph - 0.00 in Snow Light Snow
6:24 PM 24.8 °F 11.5 °F 17.6 °F 74% 29.87 in 7.0 mi West 17.3 mph - 0.00 in Snow Light Snow
6:31 PM 23.0 °F 9.2 °F 17.6 °F 80% 29.88 in 1.8 mi West 17.3 mph - 0.00 in Snow Light Snow
6:34 PM 23.0 °F 9.6 °F 17.6 °F 80% 29.88 in 1.2 mi West 16.1 mph - 0.00 in Snow Light Snow
6:37 PM 23.0 °F 10.6 °F 17.6 °F 80% 29.88 in 1.5 mi West 13.8 mph - 0.00 in Snow Light Snow
6:40 PM 23.0 °F 10.1 °F 17.6 °F 80% 29.88 in 2.0 mi West 15.0 mph - 0.00 in Snow Light Snow
6:49 PM 21.2 °F 8.9 °F 19.4 °F 93% 29.88 in 1.2 mi West 12.7 mph - 0.00 in Snow Light Snow
6:56 PM 22.1 °F 10.6 °F 19.0 °F 88% 29.93 in 2.0 mi West 11.5 mph - 0.00 in Snow Light Snow
7:08 PM 21.2 °F 9.5 °F 19.4 °F 93% 29.89 in 2.0 mi West 11.5 mph - 0.00 in Snow Light Snow
7:20 PM 21.2 °F 10.1 °F 19.4 °F 93% 29.89 in 2.5 mi West 10.4 mph - 0.00 in Snow Light Snow
7:26 PM 21.2 °F 8.9 °F 19.4 °F 93% 29.89 in 1.5 mi West 12.7 mph 20.7 mph 0.00 in Snow Light Snow
7:29 PM 21.2 °F 8.9 °F 19.4 °F 93% 29.89 in 1.0 mi West 12.7 mph 20.7 mph 0.00 in Snow Light Snow
7:34 PM 21.2 °F 8.9 °F 19.4 °F 93% 29.89 in 0.8 mi WNW 12.7 mph - 0.00 in Snow Light Snow
7:48 PM 21.2 °F 8.9 °F 17.6 °F 86% 29.90 in 1.2 mi WNW 12.7 mph - 0.00 in Snow Light Snow
7:56 PM 21.0 °F 9.3 °F 18.1 °F 89% 29.94 in 6.0 mi WNW 11.5 mph - 0.00 in Snow Light Snow
8:06 PM 21.2 °F 8.9 °F 17.6 °F 86% 29.90 in 1.8 mi WNW 12.7 mph - 0.00 in Snow Light Snow
8:36 PM 19.4 °F 7.2 °F 15.8 °F 86% 29.91 in 3.0 mi WNW 11.5 mph - 0.00 in Snow Light Snow
8:56 PM 19.0 °F 5.0 °F 14.0 °F 81% 29.96 in 6.0 mi West 15.0 mph - 0.00 in Snow Light Snow
9:04 PM 19.4 °F 6.0 °F 12.2 °F 74% 29.90 in 9.0 mi WNW 13.8 mph - 0.00 in   Mostly Cloudy
9:17 PM 19.4 °F 5.5 °F 12.2 °F 74% 29.91 in 7.0 mi WNW 15.0 mph - 0.00 in   Mostly Cloudy
9:28 PM 19.4 °F 7.2 °F 12.2 °F 74% 29.91 in 8.0 mi WNW 11.5 mph - 0.00 in   Scattered Clouds
9:33 PM 19.4 °F 6.0 °F 12.2 °F 74% 29.90 in 8.0 mi WNW 13.8 mph - 0.00 in Snow Light Snow
9:43 PM 17.6 °F 3.7 °F 14.0 °F 86% 29.91 in 1.8 mi WNW 13.8 mph - 0.00 in Snow Light Snow
9:47 PM 17.6 °F 3.2 °F 14.0 °F 86% 29.92 in 1.5 mi WNW 15.0 mph - 0.00 in Snow Light Snow
9:56 PM 18.1 °F 4.4 °F 14.0 °F 84% 29.97 in 1.8 mi NW 13.8 mph - 0.00 in Snow Light Snow
10:05 PM 17.6 °F 2.7 °F 12.2 °F 79% 29.92 in 3.0 mi WNW 16.1 mph - 0.00 in Snow Light Snow
10:22 PM 15.8 °F -0.6 °F 8.6 °F 73% 29.93 in 5.0 mi WNW 18.4 mph 25.3 mph 0.00 in Snow Light Snow
10:56 PM 14.0 °F -0.8 °F 7.2 °F 74% 30.00 in 4.0 mi NW 13.8 mph 26.5 mph 0.00 in Snow Light Snow
11:56 PM 13.1 °F -4.2 °F 3.0 °F 64% 30.04 in 7.0 mi WNW 18.4 mph 27.6 mph 0.00 in   Mostly Cloudy